Home   Weather   Worcester   Past weeks

Flag for USA Past Weather in Worcester, Massachusetts, USA — Yesterday and Last 2 Weeks

Now
43 °F

Light rain. Fog.


Feels Like: 36 °F
Forecast: 47 / 58 °F
Wind: 13 mph from Northeast

Location: Worcester Regional Airport

Current Time: Apr 26, 2017 at 2:01:51 am

Latest Report: Apr 26, 2017 at 1:04 am


Visibility: 1 mi

Pressure: 30.00 "Hg

Humidity: 93%

Dew Point: 41 °F

Location of WorcesterLocation

Past Weather in Worcester — Graph

°F

Worcester Temperature Yesterday

Maximum temperature yesterday: 51 °F (at 12:54 am)
Minimum temperature yesterday: 43 °F (at 5:04 pm)
Average temperature yesterday: 45 °F

High & Low Weather Summary for the Past Weeks

 TemperatureHumidityPressure
High82 °F (Apr 11, 2:54 pm)97% (Apr 21, 11:54 am)30.57 "Hg (Apr 21, 11:54 am)
Low35 °F (Apr 19, 2:54 am)14% (Apr 14, 3:54 pm)29.67 "Hg (Apr 16, 6:54 pm)
Average51 °F65%30.13 "Hg
* Reported Apr 11 12:54 am — Apr 26 12:54 am, Worcester, Weather by CustomWeather, © 2017

Note: Actual official high and low records may vary slightly from our data, if they occured in-between our weather recording intervals... More about our weather records

Advertising

Worcester Weather History for the Previous 24 Hours

Scroll right to see more
 ConditionsComfort  
Time TempWeatherWind HumidityBarometerVisibility
12:54 am
Wed, Apr 26
43 °FLight rain. Fog.13 mph93%30.03 "Hg1 mi
12:38 am43 °FLight rain. Fog.10 mph93%30.02 "Hg1 mi
12:08 am43 °FFog.12 mph97%30.03 "Hg0 mi
11:54 pm
Tue, Apr 25
43 °FFog.14 mph93%30.05 "Hg1 mi
11:23 pm43 °FLight rain. Fog.13 mph93%30.04 "Hg1 mi
11:07 pm43 °FLight rain. Fog.10 mph97%30.06 "Hg1 mi
10:54 pm43 °FLight rain. Fog.12 mph93%30.08 "Hg0 mi
10:27 pm43 °FFog.13 mph93%30.06 "Hg1 mi
9:54 pm43 °FLight rain. Fog.12 mph97%30.10 "Hg1 mi
9:13 pm43 °FLight rain. Fog.10 mph97%30.09 "Hg1 mi
9:03 pm43 °FLight rain. Fog.12 mph93%30.09 "Hg1 mi
7:54 pm43 °FLight rain. Fog.10 mph93%30.11 "Hg0 mi
6:54 pm43 °FLight rain. Fog.14 mph93%30.13 "Hg0 mi
5:54 pm43 °FLight rain. Fog.12 mph97%30.15 "Hg1 mi
5:04 pm43 °FLight rain. Fog.12 mph97%30.15 "Hg1 mi
3:54 pm44 °FLight rain. Fog.14 mph93%30.19 "Hg1 mi
2:54 pm45 °FLight rain. Low clouds.8 mph90%30.21 "Hg7 mi
1:54 pm46 °FLight rain. Fog.15 mph86%30.21 "Hg5 mi
12:54 pm47 °FOvercast.17 mph80%30.23 "Hg10 mi
12:29 pm47 °FLight rain. Overcast.17 mph80%30.22 "Hg10 mi
11:54 am47 °FLight rain. Fog.10 mph86%30.24 "Hg6 mi
11:06 am47 °FMostly cloudy.14 mph86%30.24 "Hg10 mi
10:54 am47 °FMostly cloudy.16 mph90%30.25 "Hg10 mi
9:54 am46 °FLow clouds.16 mph93%30.26 "Hg9 mi
8:54 am46 °FLight rain. Low clouds.15 mph93%30.24 "Hg7 mi
7:54 am46 °FLight rain. Low clouds.13 mph89%30.23 "Hg7 mi
7:25 am45 °FLight rain. Low clouds.9 mph93%30.23 "Hg10 mi
6:54 am46 °FLight rain. Low clouds.7 mph89%30.22 "Hg10 mi
6:03 am46 °FMostly cloudy.9 mph79%30.20 "Hg10 mi
5:54 am46 °FMostly cloudy.10 mph79%30.20 "Hg10 mi
4:54 am47 °FOvercast.8 mph69%30.19 "Hg10 mi
3:54 am49 °FMostly cloudy.7 mph57%30.19 "Hg10 mi
2:54 am49 °FOvercast.8 mph57%30.20 "Hg10 mi
Weather by CustomWeather, © 2017

See weather overviewHow to use our weather pages